FW4499 Weather Reports


Display with metric or nautical units.
time (UTC)temp
F
wind
direction
speed
MPH
gust
MPH
rain 1hr
in
rain 24hr
in
rain mn
in
humidity
%
barometer
mb
20260506153033 63 75 2.0 9.0 0.00 0.00 0.00 60 1008.3
20260506151541 63 226 3.0 10.0 0.00 0.00 0.00 60 1008.2
20260506150038 62 276 1.0 8.0 0.00 0.00 0.00 61 1008.2
20260506144534 62 103 1.0 8.0 0.00 0.00 0.00 61 1008.3
20260506143042 62 80 1.0 8.0 0.00 0.00 0.00 61 1008.6
20260506141541 62 116 0.0 6.0 0.00 0.00 0.00 62 1008.6
20260506140041 61 256 1.0 7.0 0.00 0.00 0.00 62 1008.7
20260506134535 61 199 1.0 12.0 0.00 0.00 0.00 63 1008.5
20260506133036 60 165 1.0 8.0 0.00 0.00 0.00 64 1008.7
20260506131537 60 94 2.0 9.0 0.00 0.00 0.00 63 1008.1
20260506130041 59 189 0.0 5.0 0.00 0.00 0.00 65 1008.6
20260506124544 59 141 1.0 4.0 0.00 0.00 0.00 66 1008.6
20260506123037 59 238 0.0 3.0 0.00 0.00 0.00 66 1008.8
20260506121543 58 108 1.0 2.0 0.00 0.00 0.00 67 1009.0
20260506120039 57 304 1.0 7.0 0.00 0.00 0.00 68 1008.8
20260506114542 57 72 0.0 5.0 0.00 0.00 0.00 70 1008.8
20260506113041 56 300 0.0 3.0 0.00 0.00 0.00 71 1008.9
20260506111542 56 129 1.0 4.0 0.00 0.00 0.00 72 1008.9
20260506110040 56 121 0.0 3.0 0.00 0.00 0.00 73 1008.9
20260506104536 55 151 1.0 4.0 0.00 0.00 0.00 74 1008.9
20260506103034 54 0 0.0 4.0 0.00 0.00 0.00 74 1008.8
20260506101534 54 110 1.0 5.0 0.00 0.00 0.00 74 1008.9
20260506100040 54 221 0.0 4.0 0.00 0.00 0.00 73 1008.8
20260506094539 54 179 0.0 4.0 0.00 0.00 0.00 72 1008.7
20260506093036 54 124 0.0 4.0 0.00 0.00 0.00 71 1008.6
20260506091535 54 177 1.0 4.0 0.00 0.00 0.00 70 1008.6
20260506090046 54 94 0.0 4.0 0.00 0.00 0.00 69 1008.8
20260506084542 54 0 0.0 3.0 0.00 0.00 0.00 69 1008.9
20260506083041 55 129 0.0 6.0 0.00 0.00 0.00 68 1008.8
20260506081541 55 79 0.0 5.0 0.00 0.00 0.00 68 1009.0
20260506073034 55 217 0.0 6.0 0.00 0.00 0.00 67 1009.1
20260506071542 56 150 0.0 2.0 0.00 0.00 0.00 65 1009.0
20260506061535 58 148 0.0 3.0 0.00 0.00 0.00 62 1008.9
20260506044543 60 141 0.0 6.0 0.00 0.00 0.00 57 1009.7
20260506043036 60 139 0.0 5.0 0.00 0.00 0.00 56 1009.7
20260506041550 61 250 0.0 6.0 0.00 0.00 0.00 56 1009.8
20260506040035 61 96 0.0 8.0 0.00 0.00 0.00 55 1009.7
20260506034547 61 0 0.0 6.0 0.00 0.00 0.00 55 1009.7
20260506033039 61 0 2.0 6.0 0.00 0.00 0.00 55 1009.7
20260506031535 61 0 1.0 6.0 0.00 0.00 0.00 54 1009.7
20260506030038 61 143 1.0 5.0 0.00 0.00 0.00 54 1009.6
20260506024541 62 213 0.0 4.0 0.00 0.00 0.00 53 1009.5
20260506023043 62 293 0.0 5.0 0.00 0.00 0.00 53 1009.6
20260506021536 62 218 0.0 5.0 0.00 0.00 0.00 52 1009.5
20260506020034 62 225 0.0 7.0 0.00 0.00 0.00 51 1009.5
20260506014541 63 156 0.0 3.0 0.00 0.00 0.00 52 1009.4
20260506013051 63 128 0.0 5.0 0.00 0.00 0.00 52 1009.2
20260506011542 63 111 1.0 6.0 0.00 0.00 0.00 52 1009.0
20260506010037 63 142 1.0 5.0 0.00 0.00 0.00 52 1008.8
20260506004534 63 120 0.0 3.0 0.00 0.00 0.00 51 1008.6
20260506003041 64 102 0.0 8.0 0.00 0.00 0.00 50 1008.4
20260506001536 64 116 0.0 4.0 0.00 0.00 0.00 49 1008.2
20260506000036 65 115 1.0 9.0 0.00 0.00 0.00 47 1007.9
20260505234535 66 140 1.0 3.0 0.00 0.00 0.00 46 1007.7
20260505233034 67 214 0.0 4.0 0.00 0.00 0.00 45 1007.6
20260505231540 68 200 1.0 8.0 0.00 0.00 0.00 43 1007.4
20260505230107 69 68 0.0 6.0 0.00 0.00 0.00 42 1007.1
20260505224535 70 133 2.0 12.0 0.00 0.00 0.00 41 1007.0
20260505223038 71 87 2.0 11.0 0.00 0.00 0.00 40 1006.8
20260505221541 72 236 1.0 10.0 0.00 0.00 0.00 39 1006.7
20260505220051 73 93 2.0 8.0 0.00 0.00 0.00 36 1006.7
20260505214537 74 261 4.0 12.0 0.00 0.00 0.00 34 1006.9
20260505213035 75 247 3.0 11.0 0.00 0.00 0.00 32 1006.7
20260505211532 75 212 4.0 12.0 0.00 0.00 0.00 33 1006.6
20260505210035 75 211 4.0 16.0 0.00 0.00 0.00 34 1006.5
20260505204535 76 66 4.0 10.0 0.00 0.00 0.00 32 1006.5
20260505203036 77 212 3.0 11.0 0.00 0.00 0.00 32 1006.5
20260505201536 77 250 5.0 13.0 0.00 0.00 0.00 32 1006.5
20260505200043 78 281 3.0 13.0 0.00 0.00 0.00 31 1006.6
20260505194539 78 230 4.0 11.0 0.00 0.00 0.00 30 1006.7
20260505193052 78 127 3.0 16.0 0.00 0.00 0.00 30 1006.8
20260505191543 78 169 5.0 13.0 0.00 0.00 0.00 30 1006.9
20260505190038 78 228 5.0 14.0 0.00 0.00 0.00 28 1007.0
20260505184536 79 206 5.0 17.0 0.00 0.00 0.00 28 1007.5
20260505183038 79 212 7.0 18.0 0.00 0.00 0.00 26 1007.4
20260505181546 79 266 5.0 19.0 0.00 0.00 0.00 26 1007.6
20260505180040 79 184 3.0 17.0 0.00 0.00 0.00 28 1007.5
20260505174535 78 96 2.0 15.0 0.00 0.00 0.00 27 1007.6
20260505173035 78 56 4.0 16.0 0.00 0.00 0.00 27 1007.7
20260505171541 77 228 5.0 11.0 0.00 0.00 0.00 28 1007.8
20260505170041 76 222 4.0 14.0 0.00 0.00 0.00 30 1008.2
20260505164535 77 263 4.0 13.0 0.00 0.00 0.00 29 1008.6
20260505163036 77 109 2.0 13.0 0.00 0.00 0.00 32 1008.6
20260505161541 76 197 4.0 10.0 0.00 0.00 0.00 32 1008.8